Location: La Oliva
(42.2466°N, 2.9955°E)
Time: 07:02:23
(UTC+00:00)

Cosmos 2344 - Pass Details

Date: 22 April 2021
Orbit: 1241 x 3001 km, 63.3° (Epoch: 07 May)

Event Time Altitude Azimuth Distance (km) Brightness Sun altitude
Rises 19:53:52 0° 228° (SW) 4,316 6.6 -13.7°
Reaches altitude 10° 19:56:46 10° 232° (SW) 3,264 6.0 -14.1°
Maximum altitude 20:04:08 60° 312° (NW) 1,414 4.1 -15.3°
Drops below altitude 10° 20:11:55 10° 32° (NNE) 3,428 5.9 -16.5°
Sets 20:15:02 0° 36° (NE) 4,550 6.5 -16.9°
